When you browse on this site, cookies collect data to enhance your experience and personalize the content and advertising you see.
Visit our Privacy Policy to learn more. By continuing to use the site, you agree to this use of cookies and data.
  • In Romania
  • List of Countries
  • For 7 days
  • Water Temperature
  • Satellite Maps
  • Weather Map
  • Weather Widgets
  • user-avatar
    Login

    Hourly Weather Bracknell

    Today, 18 April, Thursday

    Time Temperature Precipitation Wind Pressure Humidity
    00:00 +9°C° 0 mm 3 mps 759 mmHg 90%
    01:00 +9°C° 0 mm 3 mps 759 mmHg 91%
    02:00 +9°C° 0 mm 3 mps 759 mmHg 92%
    03:00 +9°C° 0 mm 3 mps 759 mmHg 93%
    04:00 +9°C° 0 mm 3 mps 759 mmHg 92%
    05:00 +9°C° 0 mm 3 mps 759 mmHg 92%
    06:00 +9°C° 0 mm 3 mps 759 mmHg 91%
    07:00 +10°C° 0 mm 4 mps 759 mmHg 86%
    08:00 +12°C° 0 mm 4 mps 760 mmHg 80%
    09:00 +14°C° 0 mm 5 mps 760 mmHg 75%
    10:00 +15°C° 0 mm 5 mps 760 mmHg 70%
    11:00 +17°C° 0 mm 5 mps 760 mmHg 64%
    12:00 +19°C° 0 mm 5 mps 760 mmHg 59%
    13:00 +19°C° 0 mm 5 mps 760 mmHg 58%
    14:00 +20°C° 0 mm 5 mps 760 mmHg 56%
    15:00 +20°C° 0 mm 5 mps 760 mmHg 55%
    16:00 +19°C° 0 mm 4 mps 760 mmHg 59%
    17:00 +18°C° 0 mm 4 mps 760 mmHg 62%
    18:00 +17°C° 0 mm 4 mps 760 mmHg 66%
    19:00 +15°C° 0 mm 4 mps 761 mmHg 66%
    20:00 +14°C° 0 mm 4 mps 761 mmHg 66%
    21:00 +12°C° 0 mm 4 mps 762 mmHg 66%
    22:00 +12°C° 0 mm 3 mps 762 mmHg 69%
    23:00 +11°C° 0 mm 3 mps 762 mmHg 71%

    Tomorrow, 19 April, Friday

    Time Temperature Precipitation Wind Pressure Humidity
    00:00 +11°C° 0 mm 3 mps 762 mmHg 74%
    01:00 +10°C° 0 mm 3 mps 762 mmHg 77%
    02:00 +10°C° 0 mm 3 mps 762 mmHg 80%
    03:00 +9°C° 0 mm 3 mps 762 mmHg 84%
    04:00 +10°C° 0 mm 3 mps 763 mmHg 84%
    05:00 +10°C° 0 mm 3 mps 763 mmHg 85%
    06:00 +10°C° 0 mm 3 mps 763 mmHg 86%
    07:00 +12°C° 0 mm 3 mps 764 mmHg 80%
    08:00 +14°C° 0 mm 4 mps 764 mmHg 74%
    09:00 +17°C° 0 mm 4 mps 764 mmHg 68%
    10:00 +18°C° 0 mm 4 mps 764 mmHg 63%
    11:00 +19°C° 0 mm 5 mps 764 mmHg 57%
    12:00 +21°C° 0 mm 5 mps 765 mmHg 51%
    13:00 +21°C° 0 mm 4 mps 765 mmHg 50%
    14:00 +21°C° 0 mm 4 mps 765 mmHg 50%
    15:00 +21°C° 0 mm 4 mps 765 mmHg 49%
    16:00 +20°C° 0 mm 4 mps 765 mmHg 53%
    17:00 +19°C° 0 mm 3 mps 765 mmHg 58%
    18:00 +17°C° 0 mm 3 mps 765 mmHg 62%
    19:00 +16°C° 0 mm 3 mps 765 mmHg 65%
    20:00 +14°C° 0 mm 3 mps 765 mmHg 68%
    21:00 +13°C° 0 mm 2 mps 766 mmHg 71%
    22:00 +12°C° 0 mm 2 mps 766 mmHg 75%
    23:00 +11°C° 0 mm 3 mps 766 mmHg 80%

    Day after tomorrow, 20 April, Saturday

    Time Temperature Precipitation Wind Pressure Humidity
    00:00 +10°C° 0 mm 3 mps 766 mmHg 84%
    01:00 +10°C° 0 mm 3 mps 765 mmHg 86%
    02:00 +9°C° 0 mm 3 mps 765 mmHg 87%
    03:00 +9°C° 0 mm 3 mps 765 mmHg 89%
    04:00 +9°C° 0 mm 3 mps 765 mmHg 89%
    05:00 +9°C° 0 mm 3 mps 765 mmHg 89%
    06:00 +9°C° 0 mm 3 mps 765 mmHg 89%
    07:00 +11°C° 0 mm 3 mps 765 mmHg 83%
    08:00 +13°C° 0 mm 3 mps 765 mmHg 77%
    09:00 +17°C° 0 mm 4 mps 766 mmHg 71%
    10:00 +18°C° 0 mm 4 mps 765 mmHg 66%
    11:00 +20°C° 0 mm 4 mps 765 mmHg 61%
    12:00 +21°C° 0 mm 4 mps 765 mmHg 56%
    13:00 +21°C° 0 mm 3 mps 765 mmHg 54%
    14:00 +22°C° 0 mm 3 mps 764 mmHg 52%
    15:00 +22°C° 0 mm 3 mps 764 mmHg 51%
    16:00 +21°C° 0 mm 3 mps 764 mmHg 55%
    17:00 +20°C° 0 mm 3 mps 764 mmHg 59%
    18:00 +19°C° 0 mm 2 mps 764 mmHg 64%
    19:00 +17°C° 0 mm 2 mps 764 mmHg 66%
    20:00 +16°C° 0 mm 2 mps 764 mmHg 69%
    21:00 +14°C° 0 mm 2 mps 764 mmHg 71%
    22:00 +13°C° 0 mm 2 mps 763 mmHg 73%
    23:00 +12°C° 0 mm 2 mps 763 mmHg 76%

    21 April, Sunday

    Time Temperature Precipitation Wind Pressure Humidity
    00:00 +12°C° 0 mm 2 mps 763 mmHg 78%
    01:00 +10°C° 0 mm 2 mps 762 mmHg 79%
    02:00 +10°C° 0 mm 2 mps 762 mmHg 81%
    03:00 +9°C° 0 mm 2 mps 761 mmHg 82%
    04:00 +9°C° 0 mm 2 mps 761 mmHg 83%
    05:00 +9°C° 0 mm 2 mps 761 mmHg 84%
    06:00 +9°C° 0 mm 2 mps 761 mmHg 85%
    07:00 +12°C° 0 mm 2 mps 760 mmHg 79%
    08:00 +15°C° 0 mm 2 mps 760 mmHg 74%
    09:00 +17°C° 0 mm 2 mps 760 mmHg 68%
    10:00 +18°C° 0 mm 2 mps 760 mmHg 62%
    11:00 +19°C° 0 mm 2 mps 759 mmHg 56%
    12:00 +21°C° 0 mm 2 mps 759 mmHg 49%
    13:00 +21°C° 0 mm 2 mps 758 mmHg 48%
    14:00 +21°C° 0 mm 2 mps 758 mmHg 47%
    15:00 +21°C° 0 mm 2 mps 757 mmHg 46%
    16:00 +20°C° 0 mm 2 mps 757 mmHg 52%
    17:00 +19°C° 0 mm 2 mps 756 mmHg 58%
    18:00 +18°C° 0 mm 2 mps 756 mmHg 64%
    19:00 +17°C° 0 mm 2 mps 756 mmHg 67%
    20:00 +15°C° 0 mm 2 mps 756 mmHg 71%
    21:00 +13°C° 0 mm 2 mps 755 mmHg 75%
    22:00 +13°C° 0 mm 2 mps 755 mmHg 76%
    23:00 +12°C° 0 mm 2 mps 755 mmHg 77%

    22 April, Monday

    Time Temperature Precipitation Wind Pressure Humidity
    00:00 +10°C° 0 mm 2 mps 754 mmHg 77%
    01:00 +10°C° 0 mm 2 mps 754 mmHg 79%
    02:00 +9°C° 0 mm 2 mps 753 mmHg 81%
    03:00 +9°C° 0 mm 2 mps 753 mmHg 83%
    04:00 +9°C° 0 mm 2 mps 753 mmHg 83%
    05:00 +10°C° 0 mm 2 mps 752 mmHg 83%
    06:00 +10°C° 0 mm 2 mps 752 mmHg 83%
    07:00 +13°C° 0 mm 2 mps 752 mmHg 76%
    08:00 +15°C° 0 mm 2 mps 752 mmHg 69%
    09:00 +17°C° 0 mm 3 mps 752 mmHg 63%
    10:00 +19°C° 0 mm 3 mps 751 mmHg 58%
    11:00 +20°C° 0 mm 3 mps 751 mmHg 53%
    12:00 +21°C° 0 mm 4 mps 751 mmHg 48%
    13:00 +21°C° 0 mm 4 mps 750 mmHg 49%
    14:00 +21°C° 0 mm 4 mps 750 mmHg 50%
    15:00 +21°C° 0 mm 4 mps 749 mmHg 51%
    16:00 +20°C° 0 mm 3 mps 749 mmHg 56%
    17:00 +19°C° 0 mm 3 mps 749 mmHg 61%
    18:00 +18°C° 0 mm 3 mps 748 mmHg 67%
    19:00 +16°C° 0 mm 3 mps 748 mmHg 68%
    20:00 +14°C° 0 mm 3 mps 748 mmHg 70%
    21:00 +12°C° 0 mm 3 mps 749 mmHg 71%
    22:00 +12°C° 0 mm 3 mps 748 mmHg 73%
    23:00 +11°C° 0 mm 3 mps 748 mmHg 75%

    23 April, Tuesday

    Time Temperature Precipitation Wind Pressure Humidity
    00:00 +10°C° 0 mm 3 mps 748 mmHg 77%
    01:00 +10°C° 0 mm 3 mps 748 mmHg 79%
    02:00 +10°C° 0 mm 3 mps 747 mmHg 80%
    03:00 +9°C° 0 mm 3 mps 747 mmHg 81%
    04:00 +10°C° 0 mm 3 mps 747 mmHg 83%
    05:00 +10°C° 0 mm 3 mps 747 mmHg 84%
    06:00 +10°C° 0 mm 3 mps 747 mmHg 85%
    07:00 +12°C° 0 mm 3 mps 747 mmHg 79%
    08:00 +14°C° 0 mm 4 mps 747 mmHg 74%
    09:00 +17°C° 0 mm 4 mps 748 mmHg 69%
    10:00 +18°C° 0 mm 4 mps 748 mmHg 64%
    11:00 +19°C° 0 mm 4 mps 748 mmHg 59%
    12:00 +20°C° 0 mm 5 mps 748 mmHg 54%
    13:00 +20°C° 0 mm 5 mps 748 mmHg 54%
    14:00 +20°C° 0 mm 5 mps 748 mmHg 54%
    15:00 +20°C° 0 mm 5 mps 748 mmHg 54%
    16:00 +19°C° 0 mm 4 mps 748 mmHg 58%
    17:00 +18°C° 0 mm 4 mps 748 mmHg 62%
    18:00 +17°C° 0 mm 4 mps 748 mmHg 66%
    19:00 +14°C° 0 mm 4 mps 749 mmHg 65%
    20:00 +12°C° 0 mm 4 mps 749 mmHg 64%
    21:00 +11°C° 0 mm 3 mps 750 mmHg 64%
    22:00 +10°C° 0 mm 3 mps 750 mmHg 67%
    23:00 +9°C° 0 mm 3 mps 750 mmHg 70%
    Show more